TimeCST,TemperatureF,Dew PointF,Humidity,Sea Level PressureIn,VisibilityMPH,Wind Direction,Wind SpeedMPH,Gust SpeedMPH,PrecipitationIn,Events,Conditions,WindDirDegrees,DateUTC
12:15 AM,25.2,22.5,89,30.29,10.0,Calm,Calm,-,N/A,,Clear,0,2013-11-19 06:15:00
12:35 AM,25.2,22.5,89,30.29,10.0,Calm,Calm,-,N/A,,Clear,0,2013-11-19 06:35:00
12:55 AM,25.5,23.0,90,30.29,10.0,Calm,Calm,-,N/A,,Clear,0,2013-11-19 06:55:00
1:15 AM,25.0,23.0,92,30.29,10.0,Calm,Calm,-,N/A,,Clear,0,2013-11-19 07:15:00
1:35 AM,24.1,22.3,93,30.30,10.0,Calm,Calm,-,N/A,,Clear,0,2013-11-19 07:35:00
1:55 AM,24.6,22.5,91,30.31,10.0,Calm,Calm,-,N/A,,Clear,0,2013-11-19 07:55:00
2:15 AM,24.6,22.6,92,30.30,10.0,Calm,Calm,-,N/A,,Clear,0,2013-11-19 08:15:00
2:35 AM,23.9,21.7,91,30.31,10.0,Calm,Calm,-,N/A,,Clear,0,2013-11-19 08:35:00
2:55 AM,23.9,22.1,93,30.31,10.0,Calm,Calm,-,N/A,,Clear,0,2013-11-19 08:55:00
3:15 AM,23.4,21.6,93,30.31,10.0,Calm,Calm,-,N/A,,Clear,0,2013-11-19 09:15:00
3:35 AM,23.0,21.0,92,30.31,10.0,Calm,Calm,-,N/A,,Clear,0,2013-11-19 09:35:00
3:55 AM,22.6,20.8,93,30.31,10.0,Calm,Calm,-,N/A,,Clear,0,2013-11-19 09:55:00
4:15 AM,22.8,21.0,93,30.31,10.0,Calm,Calm,-,N/A,,Clear,0,2013-11-19 10:15:00
4:35 AM,22.5,20.5,92,30.31,10.0,Calm,Calm,-,N/A,,Clear,0,2013-11-19 10:35:00
4:55 AM,22.6,20.8,93,30.31,10.0,Calm,Calm,-,N/A,,Clear,0,2013-11-19 10:55:00
5:15 AM,23.0,21.2,93,30.31,10.0,ESE,3.5,-,N/A,,Clear,110,2013-11-19 11:15:00
5:35 AM,23.0,21.2,93,30.31,10.0,Calm,Calm,-,N/A,,Clear,0,2013-11-19 11:35:00
5:55 AM,22.6,20.8,93,30.31,10.0,ESE,3.5,-,N/A,,Clear,120,2013-11-19 11:55:00
6:15 AM,22.8,21.0,93,30.31,10.0,ESE,4.6,-,N/A,,Clear,110,2013-11-19 12:15:00
6:35 AM,23.0,21.2,93,30.31,10.0,Calm,Calm,-,N/A,,Clear,0,2013-11-19 12:35:00
6:55 AM,22.8,21.2,93,30.31,10.0,Calm,Calm,-,N/A,,Clear,0,2013-11-19 12:55:00
7:15 AM,22.8,21.0,93,30.32,10.0,Calm,Calm,-,N/A,,Clear,0,2013-11-19 13:15:00
7:35 AM,23.4,21.4,92,30.32,10.0,Calm,Calm,-,N/A,,Clear,0,2013-11-19 13:35:00
7:55 AM,23.9,21.9,92,30.32,10.0,Calm,Calm,-,N/A,,Clear,0,2013-11-19 13:55:00
8:15 AM,25.3,22.6,89,30.32,10.0,East,3.5,-,N/A,,Clear,100,2013-11-19 14:15:00
8:35 AM,27.0,23.4,86,30.31,10.0,ESE,3.5,-,N/A,,Clear,120,2013-11-19 14:35:00
8:55 AM,27.9,23.7,84,30.31,10.0,ESE,5.8,-,N/A,,Clear,110,2013-11-19 14:55:00
9:15 AM,29.3,24.6,83,30.31,10.0,East,5.8,-,N/A,,Clear,90,2013-11-19 15:15:00
9:35 AM,31.1,24.8,77,30.31,10.0,East,5.8,-,N/A,,Clear,90,2013-11-19 15:35:00
9:55 AM,32.2,23.7,71,30.31,10.0,ESE,8.1,-,N/A,,Clear,110,2013-11-19 15:55:00
10:15 AM,33.8,23.2,65,30.31,10.0,SE,9.2,-,N/A,,Clear,130,2013-11-19 16:15:00
10:35 AM,34.7,24.8,67,30.31,10.0,ESE,8.1,-,N/A,,Clear,120,2013-11-19 16:35:00
10:55 AM,35.8,23.9,62,30.30,10.0,ESE,8.1,-,N/A,,Clear,120,2013-11-19 16:55:00
11:15 AM,36.7,24.1,60,30.29,10.0,SE,9.2,-,N/A,,Clear,130,2013-11-19 17:15:00
11:35 AM,37.2,24.4,60,30.27,10.0,ESE,10.4,-,N/A,,Clear,110,2013-11-19 17:35:00
11:55 AM,38.3,24.3,57,30.26,10.0,East,10.4,-,N/A,,Clear,100,2013-11-19 17:55:00
12:15 PM,39.2,23.7,54,30.26,10.0,SE,8.1,-,N/A,,Clear,130,2013-11-19 18:15:00
12:35 PM,40.3,24.6,54,30.25,10.0,ESE,10.4,-,N/A,,Clear,110,2013-11-19 18:35:00
12:55 PM,40.5,24.6,53,30.24,10.0,ESE,11.5,-,N/A,,Clear,110,2013-11-19 18:55:00
1:15 PM,41.2,23.9,50,30.23,10.0,SE,9.2,-,N/A,,Clear,140,2013-11-19 19:15:00
1:35 PM,41.9,24.8,51,30.22,10.0,ESE,9.2,-,N/A,,Clear,120,2013-11-19 19:35:00
1:55 PM,42.1,22.5,46,30.22,10.0,SE,8.1,-,N/A,,Clear,130,2013-11-19 19:55:00
2:15 PM,42.1,22.6,46,30.21,10.0,ESE,10.4,-,N/A,,Clear,120,2013-11-19 20:15:00
2:35 PM,41.9,23.2,47,30.19,10.0,ESE,11.5,16.1,N/A,,Clear,110,2013-11-19 20:35:00
2:55 PM,41.9,23.2,47,30.19,10.0,SE,11.5,-,N/A,,Clear,130,2013-11-19 20:55:00
3:15 PM,41.5,23.9,50,30.18,10.0,ESE,13.8,-,N/A,,Clear,110,2013-11-19 21:15:00
3:35 PM,41.9,23.5,48,30.18,10.0,ESE,10.4,16.1,N/A,,Clear,110,2013-11-19 21:35:00
3:55 PM,41.4,23.0,48,30.18,10.0,ESE,8.1,-,N/A,,Clear,120,2013-11-19 21:55:00
4:15 PM,41.0,23.0,49,30.18,10.0,ESE,8.1,-,N/A,,Clear,120,2013-11-19 22:15:00
4:35 PM,39.7,23.9,53,30.17,10.0,ESE,6.9,-,N/A,,Clear,110,2013-11-19 22:35:00
4:55 PM,38.5,25.2,59,30.17,10.0,ESE,8.1,-,N/A,,Clear,110,2013-11-19 22:55:00
5:15 PM,37.6,25.5,62,30.18,10.0,ESE,8.1,-,N/A,,Clear,110,2013-11-19 23:15:00
5:35 PM,36.9,25.9,64,30.17,10.0,ESE,6.9,-,N/A,,Clear,110,2013-11-19 23:35:00
5:55 PM,36.7,25.7,64,30.17,10.0,East,8.1,-,N/A,,Clear,100,2013-11-19 23:55:00
6:15 PM,36.0,25.7,66,30.17,10.0,ESE,6.9,-,N/A,,Clear,120,2013-11-20 00:15:00
6:35 PM,35.8,25.3,66,30.17,10.0,ESE,6.9,-,N/A,,Clear,110,2013-11-20 00:35:00
6:55 PM,35.8,25.2,65,30.17,10.0,ESE,8.1,-,N/A,,Clear,110,2013-11-20 00:55:00
7:15 PM,35.6,25.7,67,30.17,10.0,ESE,6.9,-,N/A,,Clear,110,2013-11-20 01:15:00
7:35 PM,34.7,26.2,71,30.17,10.0,ESE,6.9,-,N/A,,Clear,110,2013-11-20 01:35:00
7:55 PM,34.7,26.2,71,30.17,10.0,ESE,6.9,-,N/A,,Clear,110,2013-11-20 01:55:00
8:15 PM,34.3,26.6,73,30.17,10.0,ESE,6.9,-,N/A,,Clear,110,2013-11-20 02:15:00
8:35 PM,34.2,26.6,74,30.16,10.0,ESE,8.1,-,N/A,,Clear,110,2013-11-20 02:35:00
8:55 PM,35.1,26.6,71,30.16,10.0,ESE,6.9,-,N/A,,Clear,120,2013-11-20 02:55:00
9:15 PM,34.9,27.1,73,30.16,10.0,ESE,6.9,-,N/A,,Clear,110,2013-11-20 03:15:00
9:35 PM,35.4,27.1,72,30.16,10.0,ESE,6.9,-,N/A,,Clear,110,2013-11-20 03:35:00
9:55 PM,35.6,27.0,71,30.16,10.0,ESE,3.5,-,N/A,,Clear,120,2013-11-20 03:55:00
10:15 PM,36.0,27.0,70,30.15,10.0,ESE,6.9,-,N/A,,Scattered Clouds,110,2013-11-20 04:15:00
10:35 PM,36.7,27.1,68,30.15,10.0,ESE,9.2,-,N/A,,Mostly Cloudy,120,2013-11-20 04:35:00
10:55 PM,37.0,27.5,68,30.15,10.0,SE,6.9,-,N/A,,Overcast,130,2013-11-20 04:55:00
11:15 PM,37.4,27.5,67,30.15,10.0,SE,10.4,-,N/A,,Overcast,130,2013-11-20 05:15:00
11:35 PM,37.6,27.5,67,30.15,10.0,SE,8.1,-,N/A,,Overcast,130,2013-11-20 05:35:00
11:55 PM,38.3,27.3,65,30.14,10.0,SE,8.1,-,N/A,,Overcast,130,2013-11-20 05:55:00